master138

Jackpot

Texas Poker Multi Jackpot System

Kini Telah hadir Jackpot SUPER ROYAL FLUSH

Kini Telah hadir Jackpot 2000 (khusus table VIP keatas).

Ikutilah global jackpot yang tersedia di system kami, dengan system jackpot terbaru dan pertama di indonesia, anda dapat membeli jackpot dengan harga 100 rupiah saja dan menangkan hadiahnya hingga puluhan juta rupiah.

Jackpot bukanlah suatu keharusan untuk dibeli, namun kami memberikan suatu fitur tambahan untuk member tercinta dari www.ingatpoker88.com.

Terdapat tiga pilihan harga jackpot yang bisa anda beli yaitu :100,500,1000 dan 2000(khusus table VIP Keatas) rupiah.

Hadiah dari Multi jackpot system www.ingatpoker88.com

  1. full house x 10 harga jackpot yang anda beli.
      (contoh:anda membeli 1000 maka:1000 X10 = 10.000)
  2. four of kind x 250 harga jackpot yang anda beli
      (contoh:anda membeli 1000 maka:1000 X250 = 250.000)
  3. Straight flush x 1200
      (contoh:anda membeli 1000 maka:1000 X1200 = 1.200.000)
  4. Royal flush x 10000 harga jackpot yang anda beli
      (contoh:anda membeli 1000 maka:1000 X10000 = 10.000.000)
  5. SUPER ROYAL FLUSH x 30000 harga jackpot yang anda beli
      (contoh:anda membeli 1000 maka:1000 X30000 = 30.000.000)

Kondisi kartu

  1. full house adalah kondisi kartu dimana kartu anda dan kartu tengah dengan total 7 kartu bisa mendapatkan nilai 5 kartu dengan kombinasi 1 tris(three of kind) dan 1 pair, contoh 3 kartu 10 dan 2 kartu 5
  2. Four of kind adalah kondisi kartu dimana kartu anda dan kartu tengah dengan total 7 kartu bisa mendapatkan nilai 5 kartu dengan kombinasi 4 kartu yang sama jumlah dan 1 kartu apapun juga contoh anda mendapatkan 4 buah kartu angka 3 dan 1 kartu apapun.
  3. Staright flush adalah kondisi kartu dimana kartu anda dan kartu tengah dengan total 7 kartu bisa mendapatkan nilai 5 kartu dengan kombinasi seri / staright dengan kembang yang sama contoh : urutan kartu dari angka 5, 6, 7, 8 , 9 10 dengan kembang yg sama misalnya as hati
  4. Royal flush adalah kondisi kartu dimana kartu anda dan kartu tengah dengan total 7 kartu bisa mendapatkan nilai 5 kartu dengan kombinasi seri / staright dengan kembang yang sama tetapi kartu tersebut haruslah dimulai dari 10. contoh 10, Queen, Jack, King dan aces dengan kembang yang sama
  5. Super Royal flush adalah kondisi kartu dimana Kedua kartu anda digabung dengan 3 kartu pertama meja haruslah royal flush. contoh kartu anda 10,Queen kembang sama dan 3 kartu pertama meja adalah Jack, King dan aces dengan kembang yang sama

Demikian adalah penjelasan dari Multi Jackpot www.ingatpoker88.com terima kasih dan selamat bermain salam hoki dari kami

Texas Poker Jackpot Winner

TOP SUPER ROYAL FLUSH
No.TanggalNamaPriceWin
125/05 20:21SIKAT26Super Royal flush6,000,000
225/05 16:23ABOOTTSuper Royal flush60,000,000
325/05 15:54DR1NKNGSuper Royal flush15,000,000
425/05 04:52SONGONG21Super Royal flush15,000,000
525/05 03:00WAMBE88Super Royal flush15,000,000
TOP ROYAL FLUSH
No.TanggalNamaPriceWin
125/05 21:15ADHEAV92Royal flush5,000,000
225/05 20:27REN_2202Royal flush1,000,000
325/05 20:11KITUK54Royal flush5,000,000
425/05 20:08RIADIRGORoyal flush5,000,000
525/05 20:06ARUALRoyal flush2,000,000
TOP STRAIGHT FLUSH
No.TanggalNamaPriceWin
125/05 21:17SEMOSStraight Flush1,200,000
225/05 21:16RR_HHStraight Flush2,400,000
325/05 21:15MEG4TRU3Straight Flush600,000
425/05 21:12LAMBEMU88Straight Flush600,000
525/05 21:08POLISAYAMStraight Flush1,200,000
LATEST JACKPOT
No.TanggalNamaPriceWin
125/05 21:18STEMPLET41Full House5,000
225/05 21:18SASTRA923Full House2,000
325/05 21:18I69QQIEDPTFull House2,000
425/05 21:17SAING017Full House1,000
525/05 21:17DOBLE998Full House5,000
625/05 21:17KIMHOA1Full House5,000
725/05 21:17CAMPTO26Full House10,000
825/05 21:17ESDAWETTFull House10,000
925/05 21:17ARI72Full House1,000
1025/05 21:17GUMPANG69Full House5,000
1125/05 21:17PLETTYFull House10,000
1225/05 21:17MV622598Full House2,000
1325/05 21:17GADISSS_JPFull House1,000
1425/05 21:17SAFA230478Full House5,000
1525/05 21:17DODDEFF72Full House5,000
1625/05 21:17RENRA17517Full House5,000
1725/05 21:17NIGHTSHOOTFull House10,000
1825/05 21:17NZRMSNFull House2,000
1925/05 21:17KUIL88Full House5,000
2025/05 21:17SEMOSStraight Flush1,200,000
2125/05 21:17LIRAJOSFull House5,000
2225/05 21:17FOXSTFull House2,000
2325/05 21:17WFS4XUCEHPFour Of A Kind50,000
2425/05 21:17DESSY1989Full House10,000
2525/05 21:17FRANKYRTFull House2,000
2625/05 21:17JOSSS58Full House5,000
2725/05 21:17MERCU999Full House20,000
2825/05 21:17C6026637Full House2,000
2925/05 21:17T4ZIK79Full House10,000
3025/05 21:17DOROL1Four Of A Kind125,000
3125/05 21:17HALMAHERE8Full House5,000
3225/05 21:17ACUL47Full House2,000
3325/05 21:17ALVAR19Full House2,000
3425/05 21:17CH3NG0STFull House5,000
3525/05 21:17KKWCB7XAM4Full House2,000
3625/05 21:17PION1988Full House2,000
3725/05 21:17T4DMIKY07Full House10,000
3825/05 21:17OYIM1724Full House2,000
3925/05 21:17Q68K42AQIGFull House10,000
4025/05 21:17ASHEMFull House20,000
4125/05 21:17FBDBC071Four Of A Kind25,000
4225/05 21:17CEKBOMFull House5,000
4325/05 21:17BUNC1R93Full House2,000
4425/05 21:17HG1JB7II40Four Of A Kind25,000
4525/05 21:16ADJI168Full House10,000
4625/05 21:16SBOBETZA12Full House5,000
4725/05 21:16FC870545Full House5,000
4825/05 21:16E4E86395Full House5,000
4925/05 21:16A46ONI731Full House10,000
5025/05 21:16OBAAY69Full House5,000

Domino Multi Jackpot System

Ikutilah global jackpot yang tersedia di system kami, dengan system jackpot terbaru dan pertama di indonesia, anda dapat membeli jackpot dengan harga 100 rupiah saja dan menangkan hadiahnya hingga puluhan juta rupiah.

Jackpot bukanlah suatu keharusan untuk dibeli, namun kami memberikan suatu fitur tambahan untuk member tercinta dari www.ingatpoker88.com.

Terdapat tiga pilihan harga jackpot yang bisa anda beli yaitu :100,500 dan 1000 rupiah.

Hadiah dari Multi jackpot system www.ingatpoker88.com

  1. Murni Kecil x 50 harga jackpot yang anda beli.
      (contoh:anda membeli 1000 maka:1000 X 50 = 50.000)
  2. Murni Besar x 50 harga jackpot yang anda beli
      (contoh:anda membeli 1000 maka:1000 X 50 = 50.000)
  3. BALAK x 100 harga jackpot yang anda beli
      (contoh:anda membeli 1000 maka:1000 X 100 = 100.000)
  4. ENAM DEWA x 6666 harga jackpot yang anda beli
      (contoh:anda membeli 1000 maka:1000 X 6666 = 6.666.000)

Demikian adalah penjelasan dari Multi Jackpot www.ingatpoker88.com terima kasih dan selamat bermain salam hoki dari kami

Domino Jackpot Winner

TOP ENAM DEWA
No.TanggalNamaPriceWin
125/05 20:06YETNO97murni enam6,666,000
225/05 19:42JALY31murni enam6,666,000
325/05 15:50JUHUB123murni enam6,666,000
425/05 13:56PANGGA86murni enam6,666,000
525/05 13:40WAKWAW127murni enam3,333,000
TOP BALAK
No.TanggalNamaPriceWin
125/05 21:17MANSOER22balak100,000
225/05 21:12DADOY88balak100,000
325/05 21:12WEEWEWbalak50,000
425/05 21:12GATSU99balak50,000
525/05 21:08SESE123balak100,000
LATEST JACKPOT
No.TanggalNamaPriceWin
125/05 21:17SEMENEWmurni kecil5,000
225/05 21:17MANSOER22balak100,000
325/05 21:17LOLOO_12murni kecil25,000
425/05 21:17LUCKYPANDAmurni kecil50,000
525/05 21:16POERBAmurni kecil50,000
625/05 21:15OIM6666murni kecil25,000
725/05 21:15F9CCEC6Emurni kecil50,000
825/05 21:14PENAKPEmurni besar25,000
925/05 21:12DADOY88balak100,000
1025/05 21:12WEEWEWbalak50,000
1125/05 21:12PWLJVYQHWFmurni besar5,000
1225/05 21:12RIZKI2013murni besar50,000
1325/05 21:12GATSU99balak50,000
1425/05 21:11V7MPGQT64Zmurni kecil25,000
1525/05 21:10INDRA6969murni kecil50,000
1625/05 21:10T4RG3T800murni kecil25,000
1725/05 21:10TUYOOOK9murni kecil50,000
1825/05 21:09KIT999murni besar25,000
1925/05 21:08SESE123balak100,000
2025/05 21:08S4RM97balak50,000
2125/05 21:08P4NT01balak50,000
2225/05 21:07ORAYTAPA99murni kecil50,000
2325/05 21:07ANEGROmurni kecil50,000
2425/05 21:06NAREKTULAHmurni kecil25,000
2525/05 21:05JEHANUbalak100,000
2625/05 21:05COPY901murni kecil50,000
2725/05 21:05BEBEC98murni besar50,000
2825/05 21:05RIGIT05murni kecil25,000
2925/05 21:05DODI773murni kecil50,000
3025/05 21:04KASIHBOS66murni kecil50,000
3125/05 21:04SAKHI0444balak50,000
3225/05 21:04M45BOZmurni kecil50,000
3325/05 21:04F9CCEC6Emurni besar50,000
3425/05 21:03AJOLAN87murni besar50,000
3525/05 21:03ECI_HOKImurni kecil50,000
3625/05 21:02KISASSSSbalak100,000
3725/05 21:02PUYUH14murni kecil25,000
3825/05 21:01MYIRWANbalak100,000
3925/05 21:01INDRAA18murni kecil5,000
4025/05 21:01BLMAMBA420balak50,000
4125/05 21:01MANSOER22murni kecil50,000
4225/05 20:59MANGDUY12murni besar50,000
4325/05 20:58ANDRIRAGILmurni kecil50,000
4425/05 20:58MATTUJU_balak10,000
4525/05 20:58YIZV4T59SNlucky9925,000
4625/05 20:58CUYUNP351murni besar50,000
4725/05 20:57PARANG444murni kecil50,000
4825/05 20:57AMMUS15murni besar5,000
4925/05 20:57KERAK01balak100,000
5025/05 20:57AGOY33murni besar50,000

Ceme Multi Jackpot System

Jackpot dilihat dari gabungan kartu pemain dengan kartu bandar. Bandar harus membeli jackpot sebanyak jumlah player yang sedang duduk. Sebagai contoh bila terdapat 3 pemain duduk bermain, dan bandar memutuskan untuk membeli jackpot Rp 1.000, maka pada periode tersebut bandar akan membeli jackpot sebanyak 3xRp1.000 = Rp3.000.

Jackpot bukanlah suatu keharusan untuk dibeli, namun kami memberikan suatu fitur tambahan untuk member tercinta dari www.ingatpoker88.com.

Terdapat tiga pilihan harga jackpot yang bisa anda beli yaitu :100,500 dan 1000 rupiah.

Hadiah dari Multi jackpot system www.ingatpoker88.com

  1. Murni Kecil x 50 harga jackpot yang anda beli.
      (contoh:anda membeli 1000 maka:1000 X 50 = 50.000)
  2. Murni Besar x 50 harga jackpot yang anda beli
      (contoh:anda membeli 1000 maka:1000 X 50 = 50.000)
  3. BALAK x 200 harga jackpot yang anda beli
      (contoh:anda membeli 1000 maka:1000 X 200 = 200.000)
  4. ENAM DEWA x 6666 harga jackpot yang anda beli
      (contoh:anda membeli 1000 maka:1000 X 6666 = 6.666.000)

Demikian adalah penjelasan dari Multi Jackpot www.ingatpoker88.com terima kasih dan selamat bermain salam hoki dari kami

Ceme Jackpot Winner

TOP ENAM DEWA
No.TanggalNamaPriceWin
125/05 20:21KTSKYXLYCKmurni enam6,666,000
225/05 20:21BABAT01murni enam6,666,000
325/05 20:16E37Z1XLFYGmurni enam6,666,000
425/05 20:08CENTONXmurni enam6,666,000
525/05 19:53RAMBUS33murni enam6,666,000
TOP BALAK
No.TanggalNamaPriceWin
125/05 21:17QQTONSANbalak20,000
225/05 21:17LOTBALIbalak200,000
325/05 21:17KLUAR68balak200,000
425/05 21:16BENGEZ17balak200,000
525/05 21:16ALFREDO8balak200,000
LATEST JACKPOT
No.TanggalNamaPriceWin
125/05 21:17QQTONSANbalak20,000
225/05 21:17NAMNAM6murni besar50,000
325/05 21:17ASENG378murni kecil5,000
425/05 21:17BURMAL89murni kecil50,000
525/05 21:17ROKITIKmurni kecil25,000
625/05 21:17SUYATI69murni kecil25,000
725/05 21:17GILENIAmurni kecil50,000
825/05 21:17ADDS88murni besar50,000
925/05 21:17GARNIDA67murni besar25,000
1025/05 21:17LOTBALIbalak200,000
1125/05 21:17KLUAR68balak200,000
1225/05 21:17ACHIE86murni besar50,000
1325/05 21:16OYOT66murni besar25,000
1425/05 21:16LERKImurni kecil25,000
1525/05 21:16MEMMEKU99murni besar50,000
1625/05 21:16BENGEZ17balak200,000
1725/05 21:16ALFREDO8balak200,000
1825/05 21:16MARIASETIAmurni kecil50,000
1925/05 21:16RICIS88murni kecil25,000
2025/05 21:16TNM25murni besar50,000
2125/05 21:16FRUITZAKARmurni besar50,000
2225/05 21:16GOEL88_murni kecil25,000
2325/05 21:16SLLV12murni kecil50,000
2425/05 21:16PONGOR704murni kecil5,000
2525/05 21:16CLOWY03murni besar50,000
2625/05 21:15ALFREDO8murni kecil50,000
2725/05 21:15IDK893529murni kecil50,000
2825/05 21:15IZUMmurni besar25,000
2925/05 21:15QOSIM11murni besar25,000
3025/05 21:15MEMMEKU99murni kecil50,000
3125/05 21:15FALKER26murni kecil25,000
3225/05 21:15TJ2121murni besar50,000
3325/05 21:15BUSAERI345balak200,000
3425/05 21:15JITNO88balak200,000
3525/05 21:15TOYIB25murni kecil50,000
3625/05 21:15MAHESAESAmurni besar50,000
3725/05 21:15MOCCA1994murni besar50,000
3825/05 21:15MAHESAESAmurni besar50,000
3925/05 21:15ROHISAH75balak200,000
4025/05 21:15SHA123balak20,000
4125/05 21:15SRTLTAGAGAUbalak100,000
4225/05 21:15SINGOLUDRObalak20,000
4325/05 21:14BOSKU_17murni kecil25,000
4425/05 21:14ZA1N4L88murni kecil5,000
4525/05 21:14GIDON999murni kecil25,000
4625/05 21:14ONIHOKKI1murni besar50,000
4725/05 21:14CURUT2003murni besar50,000
4825/05 21:14BCKPbalak20,000
4925/05 21:14ENONS9248balak20,000
5025/05 21:14BEMS17balak20,000